Regional Weather Roundup
Issued by NWS

Home | Current Version | Previous Version | Graphics & Text | Print | Product List | Glossary On
Versions: 1 2 3 4 5 6 7 8 9 10 11 12 13 14 15 16 17 18 19 20 21 22 23 24 25 26 27 28 29 30 31 32 33 34 35 36 37 38 39 40 41 42 43 44 45 46 47 48 49 50
000
ASUS43 KIND 012009
RWRIN

WEATHER ROUNDUP FOR INDIANA
NATIONAL WEATHER SERVICE INDIANAPOLIS IN
400 PM EDT TUE SEP 01 2015

NOTE: "FAIR" INDICATES FEW OR NO CLOUDS BELOW 12,000 FEET WITH NO
SIGNIFICANT WEATHER AND/OR OBSTRUCTIONS TO VISIBILITY.

* - STATION DOES NOT REPORT WEATHER SUCH AS PRECIPITATION OR FOG.

+ - STATION NOT QUALITY CONTROLLED BY THE NATIONAL WEATHER SERVICE.
    USE DATA WITH CAUTION...ESPECIALLY DEWPOINT AND RELATIVE
    HUMIDITY OBSERVATIONS.

INZ001>003-010>013-019-020-012100-
NORTHWEST INDIANA

CITY           SKY/WX    TMP DP  RH WIND       PRES   REMARKS
GARY /AIRPORT/ MOSUNNY   86  68  54 SW12      30.04F
KNOX *+        SUNNY     84  64  51 S6        30.04F
LA PORTE +     MOSUNNY   86  73  64 SW12      30.06F
MICHIGAN CITY+ MOSUNNY   82  68  61 SW10      30.05S
MONTICELLO +   SUNNY     84  69  60 S3        30.06F
RENSSELAER +   SUNNY     82  73  74 S7        30.06F
VALPARAISO     MOSUNNY   85  68  56 SW10      30.05F

$$

LMZ046-743>745-012100-
SOUTHERN LAKE MICHIGAN

STATION/POSITION TIME  TEMP    WIND        PRES    WAVE
                       AIR SEA DIR/SP/G            HT
                 (UTC) (F)     (DEG/KT/KT) (MB)    (FT)
BURNS HARBOR     1900   81     240/ 12/ 15 1017.6F
MICHIGAN CITY    1900   79     200/ 12/ 13   N/A
5NW MICH CITY    2000   77 73  210/  4/  6   N/A     1

$$

INZ004-005-014>016-021>024-012100-
NORTH CENTRAL INDIANA

CITY           SKY/WX    TMP DP  RH WIND       PRES   REMARKS
ELKHART        PTSUNNY   77  70  78 CALM      30.06F
GOSHEN         MOSUNNY   86  70  58 SW14      30.05F
LOGANSPORT +   PTSUNNY   82  61  47 SW8       30.08S
PERU/GRISSOM   MOSUNNY   87  68  53 SW12G17   30.06F
ROCHESTER +    MOSUNNY   88  70  55 S9        30.07F
SOUTH BEND     MOSUNNY   85  71  63 S8        30.05F
WARSAW +       SUNNY     86  68  54 W9        30.06F

$$

INZ006>009-017-018-025>027-012100-
NORTHEAST INDIANA

CITY           SKY/WX    TMP DP  RH WIND       PRES   REMARKS
ANGOLA *+      MOSUNNY   88  72  58 SW6       30.06F
AUBURN +       PTSUNNY   86  64  48 SW5       30.07F
FORT WAYNE     MOSUNNY   83  71  67 W13       30.08F
HUNTINGTON +   PTSUNNY   83  69  63 SW10      30.07F

$$

INZ028-029-035-036-043>045-051>053-012100-
WEST CENTRAL INDIANA

CITY           SKY/WX    TMP DP  RH WIND       PRES   REMARKS
CRAWFORDSVL +  PTSUNNY   81  62  53 S6        30.10S
GREENCASTLE +  PTSUNNY   81  63  54 S6        30.11F
LAFAYETTE      MOSUNNY   86  67  52 SW10      30.06F
TERRE HAUTE    PTSUNNY   86  69  56 SW8       30.10S

$$

INZ030>032-037>040-046>048-054>057-064-065-012100-
CENTRAL INDIANA

CITY           SKY/WX    TMP DP  RH WIND       PRES   REMARKS
ANDERSON       SUNNY     77  57  50 SW6       30.11F
FRANKFORT +    SUNNY     86  68  53 S3        30.10F
GREENWOOD *+   MOSUNNY   84  64  51 W3        30.11F
INDIANAPOLIS   PTSUNNY   86  65  49 W8        30.10F
-EAGLE CREEK   MOSUNNY   82  67  60 W5        30.10F
KOKOMO *+      MOSUNNY   84  70  61 SW10      30.08F
MARION +       PTSUNNY   72  61  68 S5        30.10F
MT COMFORT *+  PTSUNNY   79  70  73 CALM      30.11F
SHELBYVILLE    LGT RAIN  86  70  58 VRB3      30.09F
ZIONSVILLE +   MOSUNNY   84  67  55 SW7       30.11F

$$

INZ033-034-041-042-049-050-058-059-012100-
EAST CENTRAL INDIANA

CITY           SKY/WX    TMP DP  RH WIND       PRES   REMARKS
MUNCIE         LGT RAIN  73  64  73 W3        30.11F

$$

INZ060-061-067>069-081>083-085>088-012100-
SOUTHWEST INDIANA

CITY           SKY/WX    TMP DP  RH WIND       PRES   REMARKS
EVANSVILLE     MOSUNNY   90  64  42 S7        30.09F
HUNTINGBURG *+ CLOUDY    84  66  54 N9        30.10F
WASHINGTON +   PTSUNNY   85  63  47 S8        30.09F

$$

INZ062-063-066-070>080-084-089>092-012100-
SOUTH CENTRAL AND SOUTHEAST INDIANA

CITY           SKY/WX    TMP DP  RH WIND       PRES   REMARKS
BLOOMINGTON    MOSUNNY   86  68  54 W6        30.11F
MADISON *+     SUNNY     88  61  40 W3        30.13S
NORTH VERNON + MOSUNNY   88  63  42 SW6       30.12F
SEYMOUR +      MOSUNNY   91  66  43 W3        30.10S

$$



USA.gov is the U.S. government's official web portal to all federal, state and local government web resources and services.